User: anonymous   Login
Location: Étavigny
(49.1201°N, 2.9800°E)
Time: 17:02:25
(UTC+00:00)
Language:

CZ-4B DEB - Orbit

View from above orbital plane
View from above orbital plane
View from above satellite
View from above satellite

Ground track
Ground track

The orbit data is extracted from the following two-line orbital elements,

1 40531U 13057D   24199.59971276  .00009796  00000-0  20002-2 0  9997
2 40531  74.9745  41.0668 0205855  47.5579 314.2788 14.48410460490141
Epoch (UTC): 17 July 2024 14:23:35
Eccentricity: 0.0205855
inclination: 74.9745°
perigee height: 584 km
apogee height: 877 km
right ascension of ascending node: 41.0668°
argument of perigee: 47.5579°
revolutions per day: 14.48410460
mean anomaly at epoch: 314.2788°
orbit number at epoch: 49014

The dashed part of the orbit path shows where the satellite is in the earth's shadow,  

DLR